Location: Ocean City
(38.3360°N, 75.0850°W)
Time: 08:00:50
(UTC-04:00)

MOZHAYETS 4 - Pass Details

Date: 22 May 2019
Orbit: 661 x 681 km, 98.0° (Epoch: 20 June)

Event Time Altitude Azimuth Distance (km) Brightness Sun altitude
Exits shadow 02:58:21 55° 127° (SE) 809 8.0 -24.8°
Maximum altitude 02:59:09 68° 75° (ENE) 731 7.9 -24.7°
Drops below altitude 10° 03:03:44 10° 353° (N) 2,112 10.9 -24.2°
Sets 03:05:58 0° 351° (N) 3,027 11.8 -24.0°
